Погода в Леттеркенни

Ирландия     54°57′03″N   7°43′54″W
темп.,
°C
ветер,
м/с
пор.,
м/с
влажн.,
%
обл.,
%
осадки,
мм/ч
давл.,
гПа
погр.,
м
21 января, пт
пт2100:00+5з117955 0.0 104117
03:00+4юз2282100 0.0 104034
06:00+5юз2282100 0.0 104037
09:00+6юз2477100 0.0 1040106
12:00+7зюз467394 0.0 1040928
15:00+7зюз477573 0.0 1038868
18:00+6зюз387698 0.0 1038545
21:00+6юз3880100 0.0 1038463
22 января, сб
сб2200:00+7юз3980100 0.0 1036477
03:00+7юз398265 0.0 1036502
06:00+6ююз2886100 0.0 1035326
09:00+6юз388932 0.0 1035331
12:00+9юз4108070 0.0 1035695
15:00+9юз41080100 0.0 1034674
18:00+8юз3108381 0.0 1034552
21:00+8ююз397965 0.0 1034522
23 января, вс
вс2300:00+4ю229188 0.0 103335
03:00+4ю23919 0.0 103254
06:00+3ю3793100 0.0 1030195
09:00+6ю387783 0.0 1030513
12:00+7ююз41072100 0.0 10291075
15:00+7ю51176100 0.0 10271028
18:00+6ююз41180100 0.0 1026617
21:00+7ю41176100 0.0 1026738
24 января, пн
пн2400:00+7ююз5128279 0.0 1027738
03:00+9юз51281100 0.1 10271109
06:00+6сз1594100 0.6 1030339
09:00+5сз248620 0.1 103387
12:00+7зюз12625 0.1 1035646
15:00+7юз12675 0.0 1035276
18:00+3юз117814 0.0 103710
21:00+3ююв1183100 0.0 103811
25 января, вт
вт2500:00+4ююв1185100 0.0 103828
03:00+5ю2293100 0.0 103765
06:00+5ю2296100 0.0 103638
09:00+5ююз369487 0.0 1036204
12:00+10юз41283100 0.0 1036822
15:00+10юз61383100 0.0 1035733
18:00+9зюз51386100 0.0 1036594
21:00+9зюз41191100 0.0 1036531